Regional Weather Roundup
Issued by NWS

Home | Current Version | Previous Version | Graphics & Text | Print | Product List | Glossary On
Versions: 1 2 3 4 5 6 7 8 9 10 11 12 13 14 15 16 17 18 19 20 21 22 23 24 25 26 27 28 29 30 31 32 33 34 35 36 37 38 39 40 41 42 43 44 45 46 47 48 49 50
000
ASUS43 KMKX 251111
RWRWI

WISCONSIN REGIONAL WEATHER ROUNDUP
NATIONAL WEATHER SERVICE MILWAUKEE/SULLIVAN WI
600 AM CDT SUN SEP 25 2016

NOTE: "FAIR" INDICATES FEW OR NO CLOUDS BELOW 12,000 FEET WITH NO
SIGNIFICANT WEATHER AND/OR OBSTRUCTIONS TO VISIBILITY.

WIZ001-002-006>008-014>016-023>028-251200-
NORTHWEST WISCONSIN

CITY           SKY/WX    TMP DP  RH WIND       PRES   REMARKS
SUPERIOR ARPT  CLOUDY    62  62  98 S7        29.89F
ASHLAND        CLOUDY    62  58  86 S5        29.96F
HAYWARD        CLOUDY    62  59  90 S10       29.96F
SIREN          LGT RAIN  65  62  90 SE9       29.91F
CUMBERLAND     LGT RAIN  61  61 100 SE9       29.95F
RICE LAKE      CLOUDY    63  60  91 SE10G17   29.97F FOG
CHETEK         NOT AVBL
LADYSMITH      CLOUDY    62  59  91 SE7       30.00F
EAU CLAIRE     CLOUDY    65  62  90 SE5       29.95F
MENOMONIE      CLOUDY    65  63  91 E6        29.95F
NEW RICHMOND   RAIN      65  64  96 SE10      29.92F
OSCEOLA        LGT RAIN  65  65 100 SE10      29.93F
$$

WIZ003>005-009-010-017-018-251200-
NORTH CENTRAL WISCONSIN

CITY           SKY/WX    TMP DP  RH WIND       PRES   REMARKS
MANITOWISH WTR NOT AVBL
ARBOR VITAE    CLOUDY    59  56  87 SE8       30.04F
WOODRUFF       CLOUDY    59  56  87 SE8       30.04F
RHINELANDER    CLOUDY    59  56  89 SE7       30.06F
EAGLE RIVER    CLOUDY    58  51  79 S7        30.06F
LAND O LAKES   CLOUDY    58  53  84 S7        30.08F
PHILLIPS       CLOUDY    60  58  94 SE6       30.00F
TOMAHAWK       MOCLDY    56  54  91 SE5       30.05F
MEDFORD        CLOUDY   N/A N/A N/A SE7       30.02F
MERRILL        CLOUDY    58  56  94 SE3       30.06F
$$

WIZ029-030-035-036-043>047-251200-
CENTRAL WISCONSIN

CITY           SKY/WX    TMP DP  RH WIND       PRES   REMARKS
WAUSAU         MOCLDY    58  55  90 SE8       30.04F
MOSINEE        PTCLDY    52  52 100 MISG      30.05F
MARSHFIELD     CLOUDY    60  57  89 SE9       30.02F
STEVENS POINT  PTCLDY    56  56 100 E7        30.05F
WAUPACA        CLOUDY    58  57  97 CALM      30.07F
WAUTOMA        MOCLDY    58  57  97 E5        30.06F
WISC RAPIDS    MOCLDY    59  59 100 SE6       30.04F
CAMP DOUGLAS   CLOUDY    59  59  99 SE8       30.01F
$$

WIZ011>013-019>022-031-037>040-048>050-251200-
NORTHEAST WISCONSIN

CITY           SKY/WX    TMP DP  RH WIND       PRES   REMARKS
ANTIGO         MOCLDY    56  55  95 SE3       30.08S
SHAWANO        PTCLDY    60  56  89 SE5       30.09S
OCONTO         NOT AVBL
STURGEON BAY   CLOUDY    62  57  83 SE10      30.12F
GREEN BAY      CLOUDY    61  60  97 SE9       30.09F
MANITOWOC      CLOUDY    63  59  87 SE8       30.12S
APPLETON       NOT AVBL
CLINTONVILLE   NOT AVBL
OSHKOSH        CLOUDY    63  60  90 SE9       30.07S
$$

WIZ032>034-041-042-053>061-251200-
SOUTHWEST WISCONSIN

CITY           SKY/WX    TMP DP  RH WIND       PRES   REMARKS
LA CROSSE      CLOUDY    69  64  84 S9        29.95F
SPARTA         PTCLDY    63  62  95 S3        29.99F
VIROQUA        CLOUDY    63  63 100 SE8       30.00F
BOSCOBEL       MOCLDY    64  62  93 N3        30.00F FOG
PRAIRIE DU CHI CLOUDY    65  63  90 E7        29.99F
PLATTEVILLE    PTCLDY    64  64 100 E3        30.02F
$$

WIZ056-057-062-063-064-067-068-251200-
SOUTH CENTRAL WISCONSIN

CITY           SKY/WX    TMP DP  RH WIND       PRES   REMARKS
REEDSBURG      NOT AVBL
BARABOO/DELLS  PTCLDY    63  61  93 SE8       30.03F
LONE ROCK      PTCLDY    64  62  93 E8        30.02F
MINERAL POINT  CLEAR     64  64 100 SE9       30.03F
MADISON        CLOUDY    64  62  93 SE6       30.04F
MIDDLETON      CLOUDY    64  64 100 SE5       30.04F
WATERTOWN      PTCLDY    62  62 100 E5        30.06F
MONROE         MOCLDY    64  63  94 S10       30.04F FOG
JANESVILLE     CLOUDY    66  64  94 SE7       30.05F
$$

WIZ051-052-058>065-066-070>072-251200-
SOUTHEAST WISCONSIN

CITY           SKY/WX    TMP DP  RH WIND       PRES   REMARKS
MILWAUKEE      PTCLDY    67  63  87 SE8       30.10S
WAUKESHA       MOCLDY    63  61  94 SE7       30.10S
MILWAUKEE/TIMM CLOUDY    64  59  82 SE6       30.09F
RACINE         PTCLDY    67  62  84 S10       30.11S
BURLINGTON     CLOUDY    61  60  99 SE3       30.08F
KENOSHA        PTCLDY    65  62  90 SE7       30.10S
FOND DU LAC    PTCLDY    64  61  90 SE8       30.07F
SHEBOYGAN      PTCLDY    64  60  87 SE7       30.10S
WEST BEND      CLOUDY    63  61  94 SE3       30.09F
JUNEAU         PTCLDY    62  61  94 SE8       30.07F
$$

LSZ147-162-251200-
LAKE SUPERIOR

STATION/POSITION TIME  TEMP    WIND        PRES    WAVE
                       AIR SEA DIR/SP/G            HT/PER
                 (UTC) (F)     (DEG/KT/KT) (MB)    (FT/S)
W MID LAKE BUOY  1050   62 60  150/ 16/ 17 1014.6F   3/ 4
DEVILS ISLAND    1000   62     140/  6/  7 1015.1F
SAXON HARBOR     1000   63     170/  3/  8 1014.9
$$

LMZ867-665-643>646-251200-
LAKE MICHIGAN

STATION/POSITION TIME  TEMP    WIND        PRES    WAVE
                       AIR SEA DIR/SP/G            HT/PER
                 (UTC) (F)     (DEG/KT/KT) (MB)    (FT/S)
CHAMBERS ISLAND  1000   63     130/  4/ 10 1020.0S
S GREEN BAY BUOY 1000   63 66  140/ 10/ 14 1019.1F
N MID LAKE BUOY  1050   62 67  170/ 16/ 19 1020.3S   3/ 5
NORTHPORT PIER   1000   63     150/ 11/ 16 1020.7R
SISTER BAY       0938   62     160/ 11/ 14   N/A
KEWAUNEE LAKESHO 1000   64     160/ 15/ 17 1019.5F
SHEBOYGAN LAKESH 1100   64     140/ 14/ 15 1018.8F
PORT WASHINGTON  1000   62      CALM  /  1 1020.0
ATWATER BUOY     1100   64 61  150/  8/ 12 1018.9F
MILWAUKEE LAKESH 1010   64     160/  4/  5   N/A
S MID LAKE BUOY  1050   67 72  140/ 17/ 21 1019.1F   3/ 5
KENOSHA   LAKESH 1100   65     160/ 15/ 16 1018.6S
$$

TC  - TEMPERATURE IN CELSIUS
VSB - VISIBILITY IN STATUTE MILES
WCI - WIND CHILL INDEX
HX  - HEAT INDEX





USA.gov is the U.S. government's official web portal to all federal, state and local government web resources and services.